When you browse on this site, cookies collect data to enhance your experience and personalize the content and advertising you see.
Visit our Privacy Policy to learn more. By continuing to use the site, you agree to this use of cookies and data.
  • In Germany
  • List of Countries
  • For 7 days
  • Water Temperature
  • Satellite Maps
  • Weather Map
  • Weather Widgets
  • user-avatar
    Login

    Hourly Weather Brisbane

    Today, 23 May, Thursday

    Time Temperature Precipitation Wind Pressure Humidity
    00:00 +18°C° 0 mm 2 mps 767 mmHg 84%
    01:00 +18°C° 0 mm 2 mps 767 mmHg 85%
    02:00 +17°C° 0 mm 2 mps 767 mmHg 85%
    03:00 +17°C° 0 mm 2 mps 767 mmHg 86%
    04:00 +17°C° 0 mm 2 mps 767 mmHg 87%
    05:00 +16°C° 0 mm 2 mps 767 mmHg 87%
    06:00 +16°C° 0 mm 2 mps 767 mmHg 87%
    07:00 +16°C° 0 mm 2 mps 767 mmHg 87%
    08:00 +19°C° 0 mm 2 mps 768 mmHg 78%
    09:00 +21°C° 0 mm 3 mps 768 mmHg 70%
    10:00 +24°C° 0 mm 3 mps 768 mmHg 61%
    11:00 +25°C° 0.1 mm 3 mps 767 mmHg 59%
    12:00 +25°C° 0.1 mm 3 mps 767 mmHg 58%
    13:00 +26°C° 0.1 mm 4 mps 766 mmHg 56%
    14:00 +25°C° 0.2 mm 4 mps 766 mmHg 60%
    15:00 +23°C° 0.2 mm 4 mps 766 mmHg 64%
    16:00 +22°C° 0.2 mm 4 mps 766 mmHg 68%
    17:00 +21°C° 0.1 mm 3 mps 766 mmHg 72%
    18:00 +20°C° 0.1 mm 3 mps 766 mmHg 77%
    19:00 +19°C° 0.1 mm 3 mps 766 mmHg 81%
    20:00 +19°C° 0.2 mm 2 mps 767 mmHg 83%
    21:00 +18°C° 0.2 mm 2 mps 767 mmHg 84%
    22:00 +18°C° 0.2 mm 2 mps 767 mmHg 85%
    23:00 +18°C° 0.1 mm 2 mps 767 mmHg 85%

    Tomorrow, 24 May, Friday

    Time Temperature Precipitation Wind Pressure Humidity
    00:00 +17°C° 0.1 mm 2 mps 766 mmHg 86%
    01:00 +17°C° 0.1 mm 2 mps 766 mmHg 86%
    02:00 +17°C° 0 mm 2 mps 766 mmHg 86%
    03:00 +16°C° 0 mm 2 mps 766 mmHg 86%
    04:00 +16°C° 0 mm 2 mps 766 mmHg 87%
    05:00 +16°C° 0 mm 2 mps 766 mmHg 86%
    06:00 +16°C° 0 mm 2 mps 766 mmHg 86%
    07:00 +16°C° 0 mm 2 mps 766 mmHg 85%
    08:00 +18°C° 0 mm 2 mps 766 mmHg 76%
    09:00 +20°C° 0 mm 2 mps 766 mmHg 67%
    10:00 +24°C° 0 mm 2 mps 766 mmHg 58%
    11:00 +25°C° 0 mm 2 mps 765 mmHg 54%
    12:00 +25°C° 0 mm 2 mps 765 mmHg 50%
    13:00 +26°C° 0 mm 2 mps 764 mmHg 46%
    14:00 +26°C° 0 mm 2 mps 764 mmHg 49%
    15:00 +25°C° 0 mm 2 mps 764 mmHg 52%
    16:00 +24°C° 0 mm 3 mps 763 mmHg 55%
    17:00 +23°C° 0 mm 2 mps 764 mmHg 62%
    18:00 +21°C° 0 mm 2 mps 764 mmHg 69%
    19:00 +19°C° 0 mm 2 mps 765 mmHg 76%
    20:00 +19°C° 0 mm 2 mps 765 mmHg 78%
    21:00 +19°C° 0 mm 1 mps 765 mmHg 81%
    22:00 +19°C° 0 mm 1 mps 765 mmHg 84%
    23:00 +18°C° 0 mm 1 mps 765 mmHg 85%

    Day after tomorrow, 25 May, Saturday

    Time Temperature Precipitation Wind Pressure Humidity
    00:00 +17°C° 0 mm 2 mps 765 mmHg 87%
    01:00 +17°C° 0 mm 2 mps 764 mmHg 89%
    02:00 +16°C° 0 mm 2 mps 764 mmHg 90%
    03:00 +16°C° 0 mm 2 mps 764 mmHg 90%
    04:00 +16°C° 0 mm 2 mps 764 mmHg 91%
    05:00 +15°C° 0 mm 2 mps 764 mmHg 90%
    06:00 +15°C° 0 mm 2 mps 764 mmHg 89%
    07:00 +15°C° 0 mm 2 mps 764 mmHg 88%
    08:00 +18°C° 0 mm 2 mps 764 mmHg 78%
    09:00 +21°C° 0 mm 1 mps 764 mmHg 67%
    10:00 +24°C° 0 mm 1 mps 764 mmHg 57%
    11:00 +25°C° 0 mm 1 mps 763 mmHg 51%
    12:00 +26°C° 0 mm 1 mps 763 mmHg 46%
    13:00 +28°C° 0 mm 1 mps 762 mmHg 40%
    14:00 +27°C° 0 mm 1 mps 762 mmHg 43%
    15:00 +26°C° 0 mm 2 mps 761 mmHg 47%
    16:00 +25°C° 0 mm 3 mps 761 mmHg 50%
    17:00 +23°C° 0 mm 2 mps 762 mmHg 58%
    18:00 +21°C° 0 mm 2 mps 762 mmHg 65%
    19:00 +20°C° 0 mm 2 mps 762 mmHg 73%
    20:00 +20°C° 0 mm 1 mps 762 mmHg 76%
    21:00 +19°C° 0 mm 1 mps 763 mmHg 79%
    22:00 +17°C° 0 mm 0 mps 763 mmHg 82%
    23:00 +18°C° 0 mm 1 mps 762 mmHg 84%

    26 May, Sunday

    Time Temperature Precipitation Wind Pressure Humidity
    00:00 +18°C° 0 mm 1 mps 762 mmHg 85%
    01:00 +18°C° 0 mm 1 mps 762 mmHg 87%
    02:00 +16°C° 0 mm 1 mps 762 mmHg 87%
    03:00 +16°C° 0 mm 1 mps 762 mmHg 87%
    04:00 +16°C° 0 mm 2 mps 761 mmHg 88%
    05:00 +16°C° 0 mm 2 mps 762 mmHg 85%
    06:00 +16°C° 0 mm 2 mps 762 mmHg 82%
    07:00 +16°C° 0 mm 2 mps 762 mmHg 80%
    08:00 +18°C° 0 mm 2 mps 762 mmHg 69%
    09:00 +21°C° 0 mm 2 mps 762 mmHg 57%
    10:00 +24°C° 0 mm 2 mps 762 mmHg 46%
    11:00 +25°C° 0 mm 2 mps 761 mmHg 40%
    12:00 +27°C° 0 mm 2 mps 760 mmHg 34%
    13:00 +28°C° 0 mm 2 mps 759 mmHg 28%
    14:00 +28°C° 0 mm 2 mps 759 mmHg 30%
    15:00 +27°C° 0 mm 2 mps 759 mmHg 32%
    16:00 +27°C° 0 mm 2 mps 759 mmHg 35%
    17:00 +25°C° 0 mm 2 mps 759 mmHg 39%
    18:00 +23°C° 0 mm 2 mps 760 mmHg 44%
    19:00 +20°C° 0 mm 2 mps 760 mmHg 48%
    20:00 +19°C° 0 mm 2 mps 760 mmHg 48%
    21:00 +19°C° 0 mm 2 mps 760 mmHg 47%
    22:00 +18°C° 0 mm 2 mps 761 mmHg 47%
    23:00 +18°C° 0 mm 2 mps 760 mmHg 48%

    27 May, Monday

    Time Temperature Precipitation Wind Pressure Humidity
    00:00 +17°C° 0 mm 2 mps 760 mmHg 49%
    01:00 +17°C° 0 mm 2 mps 760 mmHg 50%
    02:00 +16°C° 0 mm 2 mps 760 mmHg 51%
    03:00 +16°C° 0 mm 2 mps 760 mmHg 52%
    04:00 +16°C° 0 mm 2 mps 760 mmHg 54%
    05:00 +16°C° 0 mm 3 mps 761 mmHg 55%
    06:00 +16°C° 0 mm 3 mps 761 mmHg 56%
    07:00 +14°C° 0 mm 3 mps 762 mmHg 56%
    08:00 +18°C° 0 mm 3 mps 762 mmHg 50%
    09:00 +20°C° 0 mm 3 mps 762 mmHg 44%
    10:00 +22°C° 0 mm 3 mps 762 mmHg 38%
    11:00 +25°C° 0 mm 2 mps 762 mmHg 33%
    12:00 +26°C° 0 mm 2 mps 761 mmHg 28%
    13:00 +27°C° 0 mm 2 mps 760 mmHg 23%
    14:00 +27°C° 0 mm 2 mps 760 mmHg 25%
    15:00 +26°C° 0 mm 2 mps 760 mmHg 27%
    16:00 +26°C° 0 mm 1 mps 760 mmHg 30%
    17:00 +23°C° 0 mm 1 mps 760 mmHg 35%
    18:00 +21°C° 0 mm 1 mps 761 mmHg 41%
    19:00 +19°C° 0 mm 1 mps 761 mmHg 47%
    20:00 +18°C° 0 mm 1 mps 762 mmHg 48%
    21:00 +16°C° 0 mm 1 mps 762 mmHg 49%
    22:00 +16°C° 0 mm 2 mps 762 mmHg 49%
    23:00 +15°C° 0 mm 2 mps 762 mmHg 48%

    28 May, Tuesday

    Time Temperature Precipitation Wind Pressure Humidity
    00:00 +13°C° 0 mm 3 mps 762 mmHg 47%
    01:00 +13°C° 0 mm 3 mps 762 mmHg 45%
    02:00 +12°C° 0 mm 3 mps 762 mmHg 46%
    03:00 +12°C° 0 mm 3 mps 762 mmHg 46%
    04:00 +11°C° 0 mm 3 mps 762 mmHg 47%
    05:00 +11°C° 0 mm 3 mps 762 mmHg 49%
    06:00 +11°C° 0 mm 3 mps 763 mmHg 51%
    07:00 +11°C° 0 mm 3 mps 763 mmHg 54%
    08:00 +13°C° 0 mm 3 mps 763 mmHg 48%
    09:00 +17°C° 0 mm 2 mps 763 mmHg 42%
    10:00 +20°C° 0 mm 2 mps 762 mmHg 36%
    11:00 +21°C° 0 mm 2 mps 762 mmHg 31%
    12:00 +24°C° 0 mm 2 mps 761 mmHg 27%
    13:00 +26°C° 0 mm 1 mps 760 mmHg 22%
    14:00 +25°C° 0 mm 1 mps 760 mmHg 24%
    15:00 +25°C° 0 mm 2 mps 760 mmHg 26%
    16:00 +24°C° 0 mm 2 mps 760 mmHg 29%
    17:00 +21°C° 0 mm 2 mps 760 mmHg 31%
    18:00 +20°C° 0 mm 2 mps 761 mmHg 34%
    19:00 +18°C° 0 mm 2 mps 761 mmHg 37%
    20:00 +17°C° 0 mm 2 mps 761 mmHg 38%
    21:00 +16°C° 0 mm 3 mps 762 mmHg 39%
    22:00 +14°C° 0 mm 3 mps 762 mmHg 40%
    23:00 +13°C° 0 mm 3 mps 762 mmHg 41%
    Show more